Location: Ballingbuur
(53.0000°N, 5.7667°E)
Time: 06:54:13
(UTC+00:00)

Spot 2 - Pass Details

Date: 29 November 2020
Orbit: 569 x 774 km, 98.7° (Epoch: 23 January)

Event Time Altitude Azimuth Distance (km) Brightness Sun altitude
Rises 05:50:34 0° 15° (NNE) 3,260 7.7 -13.4°
Reaches altitude 10° 05:52:53 10° 14° (NNE) 2,334 7.0 -13.1°
Maximum altitude 05:58:05 82° 288° (WNW) 788 4.5 -12.3°
Drops below altitude 10° 06:03:10 10° 202° (SSW) 2,291 7.0 -11.6°
Sets 06:05:26 0° 201° (SSW) 3,195 7.7 -11.3°
